GW2311 Weather Reports


Display with metric or nautical units.
time (UTC)temp
F
wind
direction
speed
MPH
gust
MPH
rain 1hr
in
rain 24hr
in
rain mn
in
humidity
%
barometer
mb
20260502234332 79 11 0.0 1.0 0.00 0.00 0.00 16 1017.1
20260502233343 80 46 0.0 2.0 0.00 0.00 0.00 17 1016.8
20260502232323 79 118 0.0 0.0 0.00 0.00 0.00 19 1017.0
20260502231334 79 80 0.0 0.0 0.00 0.00 0.00 18 1017.0
20260502230345 79 132 0.0 1.0 0.00 0.00 0.00 16 1017.3
20260502225325 78 130 0.0 1.0 0.00 0.00 0.00 20 1017.2
20260502224416 79 159 0.0 0.0 0.00 0.00 0.00 15 1017.3
20260502223316 79 213 0.0 2.0 0.00 0.00 0.00 19 1017.6
20260502222327 79 186 0.0 1.0 0.00 0.00 0.00 17 1017.7
20260502221338 79 178 1.0 3.0 0.00 0.00 0.00 18 1017.7
20260502220318 79 177 0.0 1.0 0.00 0.00 0.00 19 1017.7
20260502215329 79 166 1.0 2.0 0.00 0.00 0.00 19 1018.1
20260502214340 79 276 1.0 1.0 0.00 0.00 0.00 19 1018.4
20260502213320 79 63 0.0 1.0 0.00 0.00 0.00 20 1018.5
20260502212331 79 87 0.0 2.0 0.00 0.00 0.00 21 1018.5
20260502211342 78 146 0.0 2.0 0.00 0.00 0.00 21 1018.9
20260502210322 78 327 1.0 1.0 0.00 0.00 0.00 16 1018.7
20260502205333 78 97 0.0 2.0 0.00 0.00 0.00 15 1018.8
20260502204424 79 156 0.0 3.0 0.00 0.00 0.00 18 1018.9
20260502203324 79 182 0.0 1.0 0.00 0.00 0.00 21 1019.0
20260502202334 79 351 1.0 2.0 0.00 0.00 0.00 23 1019.1
20260502201345 78 202 0.0 1.0 0.00 0.00 0.00 19 1019.3
20260502200325 78 240 1.0 1.0 0.00 0.00 0.00 20 1019.4
20260502195337 77 148 0.0 1.0 0.00 0.00 0.00 26 1019.7
20260502194316 76 103 0.0 1.0 0.00 0.00 0.00 25 1019.5
20260502193328 75 275 1.0 2.0 0.00 0.00 0.00 26 1019.9
20260502192338 76 114 0.0 1.0 0.00 0.00 0.00 29 1020.0
20260502191318 75 327 0.0 0.0 0.00 0.00 0.00 29 1020.0
20260502190329 74 148 0.0 1.0 0.00 0.00 0.00 34 1020.1
20260502185340 73 266 0.0 0.0 0.00 0.00 0.00 33 1020.5
20260502184320 73 276 1.0 2.0 0.00 0.00 0.00 32 1020.6
20260502183351 72 237 0.0 2.0 0.00 0.00 0.00 36 1020.8
20260502182342 71 279 0.0 3.0 0.00 0.00 0.00 33 1020.9
20260502181322 70 281 2.0 2.0 0.00 0.00 0.00 36 1021.1
20260502180333 69 350 0.0 2.0 0.00 0.00 0.00 38 1021.2
20260502170337 68 277 2.0 2.0 0.00 0.00 0.00 41 1021.9
20260502164348 69 312 1.0 4.0 0.00 0.00 0.00 40 1021.5
20260502163339 69 333 0.0 1.0 0.00 0.00 0.00 43 1021.5
20260502162319 66 353 1.0 2.0 0.00 0.00 0.00 42 1021.9
20260502161350 65 312 0.0 2.0 0.00 0.00 0.00 44 1021.9
20260502160340 63 312 1.0 3.0 0.00 0.00 0.00 48 1022.0
20260502152322 57 68 0.0 0.0 0.00 0.00 0.00 55 1021.7
20260502151333 55 68 0.0 0.0 0.00 0.00 0.00 62 1021.4
20260502150344 54 68 0.0 0.0 0.00 0.00 0.00 62 1021.4
20260502130321 46 71 0.0 0.0 0.00 0.00 0.00 77 1020.6
20260502123322 46 71 0.0 0.0 0.00 0.00 0.00 76 1020.7
20260502122334 46 71 0.0 0.0 0.00 0.00 0.00 75 1020.7
20260502121345 46 71 0.0 0.0 0.00 0.00 0.00 75 1020.7
20260502120405 46 71 0.0 0.0 0.00 0.00 0.00 73 1020.6
20260502115336 47 71 0.0 0.0 0.00 0.00 0.00 79 1020.7
20260502114319 47 71 0.0 0.0 0.00 0.00 0.00 81 1020.8
20260502113327 47 71 0.0 0.0 0.00 0.00 0.00 79 1020.8
20260502112338 47 71 0.0 0.0 0.00 0.00 0.00 72 1021.1
20260502111318 47 71 0.0 0.0 0.00 0.00 0.00 72 1020.6
20260502110328 47 76 0.0 0.0 0.00 0.00 0.00 72 1021.0
20260502105419 47 76 0.0 0.0 0.00 0.00 0.00 72 1020.9
20260502104320 47 76 0.0 0.0 0.00 0.00 0.00 72 1020.9
20260502103330 47 76 0.0 0.0 0.00 0.00 0.00 72 1020.9
20260502102341 47 76 0.0 0.0 0.00 0.00 0.00 76 1021.1
20260502101321 46 76 0.0 1.0 0.00 0.00 0.00 73 1021.0
20260502100332 46 76 0.0 0.0 0.00 0.00 0.00 74 1021.0
20260502091325 47 76 0.0 0.0 0.00 0.00 0.00 69 1020.9
20260502090336 48 76 0.0 1.0 0.00 0.00 0.00 69 1021.1
20260502071332 50 76 0.0 0.0 0.00 0.00 0.00 63 1021.3
20260502070343 51 76 0.0 0.0 0.00 0.00 0.00 63 1021.3
20260502065444 51 76 0.0 0.0 0.00 0.00 0.00 60 1021.4
20260502064334 51 76 0.0 0.0 0.00 0.00 0.00 62 1021.5
20260502063405 52 76 0.0 0.0 0.00 0.00 0.00 62 1021.3
20260502062325 52 76 0.0 0.0 0.00 0.00 0.00 61 1021.2
20260502060316 52 76 0.0 0.0 0.00 0.00 0.00 61 1021.2
20260502055327 53 76 0.0 0.0 0.00 0.00 0.00 58 1021.4
20260502054338 53 76 0.0 0.0 0.00 0.00 0.00 57 1021.3
20260502053318 54 76 0.0 0.0 0.00 0.00 0.00 55 1021.2
20260502052329 54 76 0.0 0.0 0.00 0.00 0.00 54 1021.4
20260502051340 55 76 0.0 0.0 0.00 0.00 0.00 53 1021.4
20260502050320 55 76 0.0 0.0 0.00 0.00 0.00 52 1021.4
20260502045351 56 76 0.0 0.0 0.00 0.00 0.00 52 1021.4
20260502044342 56 76 0.0 0.0 0.00 0.00 0.00 49 1021.1
20260502043322 57 76 0.0 0.0 0.00 0.00 0.00 49 1021.6
20260502042333 58 76 0.0 0.0 0.00 0.00 0.00 48 1021.4
20260502041423 58 76 0.0 0.0 0.00 0.00 0.00 46 1021.2
20260502040323 59 76 0.0 0.0 0.00 0.00 0.00 46 1021.3
20260502035334 59 75 0.0 0.0 0.00 0.00 0.00 46 1021.1
20260502034345 60 76 0.0 0.0 0.00 0.00 0.00 43 1021.2
20260502033326 61 76 0.0 0.0 0.00 0.00 0.00 41 1021.1
20260502032336 62 76 0.0 0.0 0.00 0.00 0.00 40 1020.8
20260502031317 64 75 0.0 0.0 0.00 0.00 0.00 38 1020.8
20260502030347 65 75 0.0 0.0 0.00 0.00 0.00 36 1020.8
20260502025338 67 76 0.0 0.0 0.00 0.00 0.00 32 1020.6
20260502024319 67 75 0.0 0.0 0.00 0.00 0.00 29 1020.5
20260502023330 68 75 0.0 0.0 0.00 0.00 0.00 28 1020.5
20260502022340 69 75 0.0 0.0 0.00 0.00 0.00 26 1020.6
20260502021320 70 75 0.0 0.0 0.00 0.00 0.00 25 1020.6
20260502020351 71 75 0.0 0.0 0.00 0.00 0.00 23 1020.8
20260502015342 72 75 0.0 0.0 0.00 0.00 0.00 20 1020.8
20260502014322 72 76 0.0 1.0 0.00 0.00 0.00 20 1020.7
20260502013333 72 48 0.0 1.0 0.00 0.00 0.00 20 1020.7
20260502012344 72 57 0.0 1.0 0.00 0.00 0.00 19 1020.8
20260502011324 72 326 0.0 2.0 0.00 0.00 0.00 21 1021.0
20260502010335 72 70 0.0 1.0 0.00 0.00 0.00 19 1020.8
20260502005346 73 70 0.0 1.0 0.00 0.00 0.00 18 1021.1
20260502004326 73 41 0.0 1.0 0.00 0.00 0.00 17 1021.0
20260502003337 73 84 0.0 1.0 0.00 0.00 0.00 20 1021.1
20260502002337 73 80 0.0 1.0 0.00 0.00 0.00 21 1021.0
20260502001327 74 60 1.0 2.0 0.00 0.00 0.00 20 1021.2
20260502000339 74 280 1.0 2.0 0.00 0.00 0.00 22 1021.2
20260501235318 74 212 1.0 2.0 0.00 0.00 0.00 21 1021.4